Hourly Weather Al Hufuf

Today, 7 March, Sunday

Time Temperature Precipitation Wind Pressure Humidity
00:00 +16°C° 0 mm 3 mps 751 mmHg 32%
01:00 +16°C° 0 mm 3 mps 750 mmHg 31%
02:00 +15°C° 0 mm 4 mps 750 mmHg 31%
03:00 +15°C° 0 mm 4 mps 749 mmHg 30%
04:00 +15°C° 0 mm 4 mps 750 mmHg 29%
05:00 +14°C° 0 mm 4 mps 750 mmHg 29%
06:00 +14°C° 0 mm 4 mps 751 mmHg 28%
07:00 +16°C° 0 mm 5 mps 751 mmHg 25%
08:00 +19°C° 0 mm 6 mps 751 mmHg 22%
09:00 +21°C° 0 mm 7 mps 751 mmHg 18%
10:00 +22°C° 0 mm 7 mps 751 mmHg 16%
11:00 +24°C° 0 mm 7 mps 750 mmHg 14%
12:00 +26°C° 0 mm 7 mps 750 mmHg 12%
13:00 +27°C° 0 mm 6 mps 749 mmHg 11%
14:00 +27°C° 0 mm 6 mps 748 mmHg 10%
15:00 +28°C° 0 mm 6 mps 748 mmHg 10%
16:00 +26°C° 0 mm 5 mps 748 mmHg 11%
17:00 +23°C° 0 mm 4 mps 748 mmHg 13%
18:00 +21°C° 0 mm 3 mps 748 mmHg 15%
19:00 +19°C° 0 mm 2 mps 748 mmHg 23%
20:00 +18°C° 0 mm 2 mps 749 mmHg 31%
21:00 +16°C° 0 mm 2 mps 749 mmHg 40%
22:00 +16°C° 0 mm 1 mps 749 mmHg 43%
23:00 +15°C° 0 mm 1 mps 748 mmHg 45%

Tomorrow, 8 March, Monday

Time Temperature Precipitation Wind Pressure Humidity
00:00 +13°C° 0 mm 0 mps 748 mmHg 48%
01:00 +13°C° 0 mm 0 mps 748 mmHg 46%
02:00 +13°C° 0 mm 0 mps 747 mmHg 45%
03:00 +12°C° 0 mm 0 mps 747 mmHg 43%
04:00 +12°C° 0 mm 0 mps 747 mmHg 41%
05:00 +12°C° 0 mm 0 mps 748 mmHg 40%
06:00 +12°C° 0 mm 0 mps 748 mmHg 38%
07:00 +15°C° 0 mm 0 mps 748 mmHg 31%
08:00 +19°C° 0 mm 0 mps 749 mmHg 24%
09:00 +24°C° 0 mm 1 mps 749 mmHg 17%
10:00 +26°C° 0 mm 1 mps 749 mmHg 15%
11:00 +28°C° 0 mm 1 mps 748 mmHg 13%
12:00 +29°C° 0 mm 1 mps 748 mmHg 11%
13:00 +30°C° 0 mm 1 mps 747 mmHg 10%
14:00 +31°C° 0 mm 2 mps 746 mmHg 10%
15:00 +32°C° 0 mm 2 mps 746 mmHg 9%
16:00 +30°C° 0 mm 3 mps 746 mmHg 11%
17:00 +28°C° 0 mm 3 mps 746 mmHg 13%
18:00 +26°C° 0 mm 4 mps 746 mmHg 14%
19:00 +25°C° 0 mm 4 mps 746 mmHg 16%
20:00 +23°C° 0 mm 4 mps 746 mmHg 17%
21:00 +22°C° 0 mm 4 mps 746 mmHg 19%
22:00 +22°C° 0 mm 5 mps 746 mmHg 18%
23:00 +22°C° 0 mm 5 mps 745 mmHg 18%

Day after tomorrow, 9 March, Tuesday

Time Temperature Precipitation Wind Pressure Humidity
00:00 +22°C° 0 mm 5 mps 745 mmHg 18%
01:00 +21°C° 0 mm 5 mps 745 mmHg 19%
02:00 +21°C° 0 mm 5 mps 745 mmHg 19%
03:00 +21°C° 0 mm 5 mps 745 mmHg 20%
04:00 +21°C° 0 mm 5 mps 745 mmHg 20%
05:00 +21°C° 0 mm 5 mps 745 mmHg 20%
06:00 +21°C° 0 mm 5 mps 746 mmHg 20%
07:00 +25°C° 0 mm 5 mps 746 mmHg 18%
08:00 +27°C° 0 mm 5 mps 747 mmHg 16%
09:00 +30°C° 0 mm 5 mps 748 mmHg 13%
10:00 +33°C° 0 mm 6 mps 747 mmHg 13%
11:00 +34°C° 0 mm 6 mps 747 mmHg 12%
12:00 +36°C° 0 mm 6 mps 747 mmHg 11%
13:00 +36°C° 0 mm 6 mps 746 mmHg 11%
14:00 +36°C° 0 mm 5 mps 746 mmHg 12%
15:00 +36°C° 0 mm 5 mps 745 mmHg 12%
16:00 +33°C° 0 mm 5 mps 746 mmHg 15%
17:00 +30°C° 0 mm 6 mps 746 mmHg 19%
18:00 +28°C° 0 mm 6 mps 747 mmHg 22%
19:00 +26°C° 0 mm 6 mps 747 mmHg 26%
20:00 +23°C° 0 mm 5 mps 747 mmHg 29%
21:00 +22°C° 0 mm 5 mps 748 mmHg 33%
22:00 +21°C° 0 mm 4 mps 748 mmHg 33%
23:00 +20°C° 0 mm 3 mps 748 mmHg 33%

10 March, Wednesday

Time Temperature Precipitation Wind Pressure Humidity
00:00 +19°C° 0 mm 3 mps 748 mmHg 33%
01:00 +19°C° 0 mm 3 mps 748 mmHg 33%
02:00 +19°C° 0 mm 3 mps 748 mmHg 33%
03:00 +19°C° 0 mm 3 mps 748 mmHg 33%
04:00 +19°C° 0 mm 3 mps 748 mmHg 33%
05:00 +18°C° 0 mm 3 mps 748 mmHg 32%
06:00 +18°C° 0 mm 4 mps 749 mmHg 32%
07:00 +21°C° 0 mm 4 mps 749 mmHg 27%
08:00 +23°C° 0 mm 5 mps 750 mmHg 22%
09:00 +26°C° 0 mm 6 mps 750 mmHg 18%
10:00 +28°C° 0 mm 6 mps 750 mmHg 15%
11:00 +29°C° 0 mm 6 mps 750 mmHg 13%
12:00 +32°C° 0 mm 6 mps 749 mmHg 11%
13:00 +32°C° 0 mm 6 mps 749 mmHg 11%
14:00 +33°C° 0 mm 6 mps 748 mmHg 11%
15:00 +33°C° 0 mm 6 mps 748 mmHg 11%
16:00 +30°C° 0 mm 5 mps 748 mmHg 14%
17:00 +28°C° 0 mm 5 mps 748 mmHg 17%
18:00 +25°C° 0 mm 5 mps 748 mmHg 20%
19:00 +23°C° 0 mm 4 mps 749 mmHg 24%
20:00 +22°C° 0 mm 3 mps 749 mmHg 27%
21:00 +20°C° 0 mm 3 mps 749 mmHg 30%
22:00 +20°C° 0 mm 3 mps 749 mmHg 31%
23:00 +19°C° 0 mm 2 mps 749 mmHg 31%

11 March, Thursday

Time Temperature Precipitation Wind Pressure Humidity
00:00 +19°C° 0 mm 2 mps 748 mmHg 31%
01:00 +18°C° 0 mm 2 mps 748 mmHg 31%
02:00 +18°C° 0 mm 2 mps 747 mmHg 31%
03:00 +18°C° 0 mm 2 mps 746 mmHg 31%
04:00 +17°C° 0 mm 2 mps 746 mmHg 31%
05:00 +17°C° 0 mm 2 mps 747 mmHg 32%
06:00 +17°C° 0 mm 2 mps 747 mmHg 33%
07:00 +20°C° 0 mm 2 mps 747 mmHg 28%
08:00 +24°C° 0 mm 2 mps 748 mmHg 24%
09:00 +26°C° 0 mm 2 mps 748 mmHg 20%
10:00 +28°C° 0 mm 2 mps 747 mmHg 17%
11:00 +31°C° 0 mm 3 mps 747 mmHg 15%
12:00 +34°C° 0 mm 4 mps 746 mmHg 13%
13:00 +35°C° 0 mm 5 mps 745 mmHg 12%
14:00 +36°C° 0 mm 6 mps 744 mmHg 11%
15:00 +38°C° 0 mm 7 mps 743 mmHg 10%
16:00 +35°C° 0 mm 6 mps 743 mmHg 11%
17:00 +33°C° 0 mm 5 mps 743 mmHg 12%
18:00 +30°C° 0 mm 4 mps 743 mmHg 13%
19:00 +29°C° 0 mm 5 mps 743 mmHg 14%
20:00 +29°C° 0 mm 5 mps 743 mmHg 14%
21:00 +28°C° 0 mm 6 mps 742 mmHg 14%
22:00 +28°C° 0 mm 7 mps 742 mmHg 14%
23:00 +28°C° 0 mm 8 mps 741 mmHg 14%

12 March, Friday

Time Temperature Precipitation Wind Pressure Humidity
00:00 +28°C° 0 mm 8 mps 741 mmHg 14%
01:00 +28°C° 0 mm 8 mps 740 mmHg 15%
02:00 +28°C° 0 mm 9 mps 739 mmHg 15%
03:00 +27°C° 0 mm 9 mps 739 mmHg 16%
04:00 +27°C° 0 mm 9 mps 739 mmHg 16%
05:00 +27°C° 0 mm 10 mps 739 mmHg 15%
06:00 +27°C° 0 mm 10 mps 739 mmHg 15%
07:00 +29°C° 0 mm 10 mps 740 mmHg 14%
08:00 +32°C° 0 mm 10 mps 741 mmHg 12%
09:00 +33°C° 0 mm 10 mps 742 mmHg 11%
10:00 +33°C° 0 mm 9 mps 742 mmHg 11%
11:00 +33°C° 0 mm 9 mps 742 mmHg 12%
12:00 +33°C° 0 mm 8 mps 742 mmHg 12%
13:00 +33°C° 0 mm 8 mps 741 mmHg 13%
14:00 +33°C° 0 mm 9 mps 741 mmHg 13%
15:00 +32°C° 0 mm 9 mps 741 mmHg 14%
16:00 +31°C° 0 mm 9 mps 742 mmHg 15%
17:00 +29°C° 0 mm 9 mps 742 mmHg 16%
18:00 +28°C° 0 mm 9 mps 743 mmHg 17%
19:00 +27°C° 0 mm 9 mps 743 mmHg 19%
20:00 +26°C° 0 mm 9 mps 744 mmHg 20%
21:00 +23°C° 0 mm 9 mps 744 mmHg 22%
22:00 +22°C° 0 mm 8 mps 745 mmHg 24%
23:00 +21°C° 0 mm 7 mps 745 mmHg 25%
Show more